Location: Axtheid
(49.6213°N, 11.8205°E)
Time: 13:20:14
(UTC+00:00)

Cosmos-2242 - Pass Details

Date: 24 January 2021
Orbit: 591 x 616 km, 82.5° (Epoch: 25 February)

Event Time Altitude Azimuth Distance (km) Brightness Sun altitude
Rises 17:49:43 0° 353° (N) 2,847 6.5 -18.3°
Reaches altitude 10° 17:51:58 10° 358° (N) 1,943 5.5 -18.7°
Maximum altitude 17:56:12 56° 77° (ENE) 719 3.0 -19.4°
Enters shadow 17:59:05 19° 150° (SSE) 1,433 4.7 -19.8°
